Change the Weather History Date:

Monday, February 10, 2014

  Actual Average (KFNT) Record (KFNT)
Temperature  
Mean Temperature 10 °F 24 °F  
Max Temperature 18 °F 31 °F 60 °F (2009)
Min Temperature 2 °F 16 °F -19 °F (1994)
Degree Days  
Heating Degree Days 55 41  
Month to date heating degree days 418  
Since 1 July heating degree days 4382  
Cooling Degree Days 0 0  
Month to date cooling degree days 0  
Year to date cooling degree days 0  
Moisture  
Dew Point 7 °F    
Average Humidity 79    
Maximum Humidity 93    
Minimum Humidity 57    
Precipitation  
Precipitation 0.00 in 0.05 in 0.58 in (1981)
Month to date precipitation 0.48  
Year to date precipitation 2.11  
Snow  
Snow 0.00 in 0.40 in 4.00 in (1955)
Month to date snowfall 4.0  
Since 1 July snowfall 31.8  
Snow Depth -    
Sea Level Pressure  
Sea Level Pressure 30.25 in    
Wind  
Wind Speed 5 mph (West)    
Max Wind Speed 12 mph    
Max Gust Speed -    
Visibility 8 miles    
Events Snow    
T = Trace of Precipitation, MM = Missing Value Source: NWS Daily Summary

Daily Weather History Graph

Daily Weather History Graph

Search for Another Location

Airport or City:

Trip Planner

Search our weather history database for the weather conditions in past years. The results will help you decide how hot, cold, wet, or windy it might be!

Date:

Astronomy

Feb. 10, 2014 Rise Set
Actual Time 7:40 AM EST 6:01 PM EST
Civil Twilight 7:11 AM EST 6:30 PM EST
Nautical Twilight 6:37 AM EST 7:04 PM EST
Astronomical Twilight 6:05 AM EST 7:37 PM EST
Moon 2:27 PM EST (2/10) 4:35 AM EST (2/10)
Length of Visible Light 11h 19m
Length of Day
10h 20m
Waxing Gibbous, 84% of the Moon is Illuminated
Feb 10
Waxing Gibbous
Feb 14
Full
Feb 22
Last Quarter
Mar 1
New
Mar 8
First Quarter

Hourly Weather History & Observations

Time (EST) Temp. Windchill Dew Point Humidity Pressure Visibility Wind Dir Wind Speed Gust Speed Precip Events Conditions
12:15 AM 15.1 °F 6.4 °F 12.0 °F 88% 30.14 in 10.0 mi West 5.8 mph - N/A   Overcast
12:34 AM 14.5 °F 7.1 °F 11.5 °F 88% 30.14 in 7.0 mi West 4.6 mph - N/A   Overcast
12:54 AM 14.7 °F 7.3 °F 12.0 °F 89% 30.14 in 7.0 mi West 4.6 mph - N/A   Overcast
1:15 AM 14.7 °F 5.9 °F 11.5 °F 87% 30.15 in 10.0 mi West 5.8 mph - N/A   Overcast
1:34 AM 13.5 °F 4.4 °F 10.8 °F 89% 30.15 in 10.0 mi West 5.8 mph - N/A   Overcast
1:55 AM 13.1 °F 5.4 °F 10.2 °F 88% 30.15 in 10.0 mi West 4.6 mph - N/A   Overcast
2:15 AM 11.7 °F 5.5 °F 9.0 °F 89% 30.15 in 10.0 mi SW 3.5 mph - N/A   Mostly Cloudy
2:34 AM 10.2 °F 3.8 °F 8.2 °F 92% 30.16 in 7.0 mi WSW 3.5 mph - N/A   Clear
2:55 AM 6.6 °F -0.3 °F 5.0 °F 93% 30.16 in 7.0 mi WSW 3.5 mph - N/A   Clear
3:15 AM 7.9 °F - 5.7 °F 91% 30.17 in 5.0 mi Calm Calm - N/A   Clear
3:34 AM 4.8 °F -2.3 °F 2.8 °F 92% 30.17 in 5.0 mi West 3.5 mph - N/A   Scattered Clouds
3:55 AM 2.8 °F - -0.2 °F 87% 30.17 in 5.0 mi Calm Calm - N/A   Clear
4:15 AM 5.5 °F - 2.5 °F 87% 30.17 in 7.0 mi Calm Calm - N/A   Mostly Cloudy
4:34 AM 7.3 °F - 5.4 °F 92% 30.17 in 7.0 mi Calm Calm - N/A   Overcast
4:55 AM 8.2 °F -0.3 °F 6.3 °F 92% 30.17 in 7.0 mi WSW 4.6 mph - N/A   Overcast
5:14 AM 9.5 °F 3.0 °F 7.7 °F 92% 30.18 in 7.0 mi WSW 3.5 mph - N/A   Overcast
5:34 AM 9.5 °F 1.2 °F 7.5 °F 92% 30.18 in 7.0 mi West 4.6 mph - N/A   Overcast
5:55 AM 9.0 °F 0.6 °F 6.8 °F 91% 30.19 in 7.0 mi WSW 4.6 mph - N/A   Overcast
6:14 AM 9.1 °F 2.6 °F 7.2 °F 92% 30.19 in 7.0 mi WSW 3.5 mph - N/A   Overcast
6:35 AM 9.3 °F 1.0 °F 7.5 °F 92% 30.20 in 3.0 mi WSW 4.6 mph - N/A Snow Light Snow
6:55 AM 10.0 °F 1.8 °F 8.1 °F 92% 30.21 in 3.0 mi West 4.6 mph - N/A Snow Light Snow
7:14 AM 9.7 °F 1.4 °F 7.7 °F 92% 30.21 in 4.0 mi WSW 4.6 mph - N/A Snow Light Snow
7:35 AM 9.1 °F 2.6 °F 7.3 °F 92% 30.22 in 3.0 mi WSW 3.5 mph - N/A Snow Light Snow
7:55 AM 9.7 °F -0.1 °F 7.7 °F 92% 30.23 in 1.5 mi West 5.8 mph - N/A Snow Light Snow
8:14 AM 10.0 °F 0.4 °F 8.2 °F 92% 30.24 in 1.0 mi WSW 5.8 mph - N/A Snow Light Snow
8:35 AM 10.4 °F 0.8 °F 8.4 °F 92% 30.24 in 1.2 mi West 5.8 mph - N/A Snow Light Snow
8:54 AM 10.9 °F 1.4 °F 8.6 °F 90% 30.25 in 2.0 mi West 5.8 mph - N/A Snow Light Snow
9:14 AM 11.8 °F 0.3 °F 9.3 °F 90% 30.25 in 1.8 mi West 8.1 mph - N/A Snow Light Snow
9:35 AM 12.2 °F 2.9 °F 8.8 °F 86% 30.26 in 1.5 mi WNW 5.8 mph - N/A Snow Light Snow
9:54 AM 11.8 °F 3.9 °F 8.2 °F 85% 30.26 in 1.2 mi NW 4.6 mph - N/A Snow Light Snow
10:15 AM 10.6 °F 1.0 °F 6.8 °F 85% 30.27 in 2.5 mi NNW 5.8 mph - N/A Snow Light Snow
10:35 AM 10.8 °F 4.5 °F 7.0 °F 85% 30.27 in 4.0 mi NW 3.5 mph - N/A Snow Light Snow
10:54 AM 11.1 °F - 6.6 °F 82% 30.28 in 5.0 mi Calm Calm - N/A Snow Light Snow
11:15 AM 11.7 °F 5.5 °F 6.4 °F 80% 30.27 in 7.0 mi North 3.5 mph - N/A Snow Light Snow
11:35 AM 12.4 °F - 6.8 °F 78% 30.28 in 7.0 mi Calm Calm - N/A   Overcast
11:54 AM 12.7 °F 6.7 °F 6.8 °F 77% 30.28 in 3.0 mi North 3.5 mph - N/A Snow Light Snow
12:15 PM 15.6 °F - 7.2 °F 69% 30.27 in 2.0 mi Calm Calm - N/A Snow Light Snow
12:34 PM 14.2 °F 8.4 °F 6.6 °F 72% 30.27 in 10.0 mi NNE 3.5 mph - N/A   Scattered Clouds
12:54 PM 13.5 °F 4.4 °F 6.4 °F 74% 30.26 in 10.0 mi NE 5.8 mph - N/A   Scattered Clouds
1:15 PM 14.0 °F 8.2 °F 6.8 °F 73% 30.25 in 10.0 mi NNE 3.5 mph - N/A   Mostly Cloudy
1:34 PM 14.5 °F - 7.0 °F 72% 30.25 in 10.0 mi Calm Calm - N/A   Overcast
1:55 PM 15.4 °F - 6.8 °F 69% 30.24 in 10.0 mi Calm Calm - N/A   Overcast
2:15 PM 18.3 °F 6.6 °F 5.5 °F 57% 30.24 in 10.0 mi West 10.4 mph - N/A   Scattered Clouds
2:34 PM 17.4 °F 4.7 °F 6.6 °F 63% 30.24 in 10.0 mi West 11.5 mph - N/A   Scattered Clouds
2:55 PM 16.3 °F 4.9 °F 6.6 °F 66% 30.25 in 10.0 mi WSW 9.2 mph - N/A   Scattered Clouds
3:15 PM 16.7 °F 6.2 °F 6.6 °F 65% 30.25 in 10.0 mi West 8.1 mph - N/A   Overcast
3:34 PM 16.3 °F 5.7 °F 5.9 °F 64% 30.25 in 10.0 mi WNW 8.1 mph - N/A   Overcast
3:55 PM 16.7 °F 8.3 °F 6.8 °F 65% 30.25 in 10.0 mi WNW 5.8 mph - N/A   Overcast
4:14 PM 16.5 °F 8.1 °F 7.0 °F 66% 30.26 in 10.0 mi WNW 5.8 mph - N/A   Overcast
4:35 PM 16.3 °F 6.7 °F 7.2 °F 67% 30.26 in 10.0 mi WNW 6.9 mph - N/A   Overcast
4:55 PM 16.2 °F 6.5 °F 7.7 °F 69% 30.27 in 10.0 mi WNW 6.9 mph - N/A   Overcast
5:14 PM 15.8 °F 7.2 °F 7.9 °F 71% 30.27 in 10.0 mi West 5.8 mph - N/A   Overcast
5:35 PM 15.8 °F 7.2 °F 7.7 °F 70% 30.27 in 10.0 mi West 5.8 mph - N/A   Overcast
5:54 PM 15.8 °F 3.4 °F 7.0 °F 68% 30.28 in 10.0 mi West 10.4 mph - N/A   Overcast
6:15 PM 14.9 °F 3.1 °F 6.8 °F 70% 30.29 in 10.0 mi West 9.2 mph - N/A   Overcast
6:34 PM 14.5 °F 1.9 °F 8.6 °F 77% 30.29 in 7.0 mi West 10.4 mph - N/A   Overcast
6:55 PM 14.0 °F 3.9 °F 7.9 °F 77% 30.30 in 10.0 mi WSW 6.9 mph - N/A   Overcast
7:14 PM 14.0 °F 3.9 °F 8.1 °F 77% 30.31 in 10.0 mi WSW 6.9 mph - N/A   Overcast
7:34 PM 14.0 °F 2.0 °F 6.8 °F 73% 30.31 in 10.0 mi West 9.2 mph - N/A   Overcast
7:54 PM 13.8 °F 2.7 °F 6.4 °F 72% 30.32 in 10.0 mi West 8.1 mph - N/A   Overcast
8:14 PM 13.1 °F 1.8 °F 5.5 °F 72% 30.32 in 10.0 mi West 8.1 mph - N/A   Overcast
8:34 PM 12.9 °F 0.7 °F 4.5 °F 69% 30.32 in 10.0 mi West 9.2 mph - N/A   Overcast
8:54 PM 12.7 °F 0.4 °F 3.4 °F 66% 30.32 in 10.0 mi West 9.2 mph - N/A   Overcast
9:15 PM 12.6 °F 1.1 °F 3.2 °F 66% 30.33 in 10.0 mi West 8.1 mph - N/A   Overcast
9:34 PM 12.2 °F 0.7 °F 3.2 °F 67% 30.33 in 10.0 mi West 8.1 mph - N/A   Overcast
9:55 PM 12.2 °F -0.2 °F 3.2 °F 67% 30.34 in 10.0 mi West 9.2 mph - N/A   Overcast
10:15 PM 12.2 °F -0.2 °F 3.4 °F 68% 30.35 in 10.0 mi WSW 9.2 mph - N/A   Overcast
10:34 PM 12.0 °F -0.4 °F 3.4 °F 68% 30.35 in 10.0 mi West 9.2 mph - N/A   Overcast
10:55 PM 11.8 °F 0.3 °F 3.2 °F 68% 30.35 in 10.0 mi West 8.1 mph - N/A   Overcast
11:15 PM 11.3 °F -2.2 °F 3.0 °F 69% 30.35 in 10.0 mi West 10.4 mph - N/A   Overcast
11:34 PM 11.3 °F -1.3 °F 3.0 °F 69% 30.35 in 10.0 mi West 9.2 mph - N/A   Overcast
11:55 PM 10.9 °F -0.8 °F 2.7 °F 69% 30.36 in 10.0 mi West 8.1 mph - N/A   Overcast